Погода в Бонифачо

Франция     41°23′15″N   9°09′39″E
темп.,
°C
ветер,
м/с
пор.,
м/с
влажн.,
%
обл.,
%
осадки,
мм/ч
давл.,
гПа
погр.,
м
7 марта, вс
вс701:00+12ссв7107722 0.0 1023446
04:00+11св710894 0.0 1022435
07:00+11ссв710867 0.0 1022398
10:00+13св677227 0.0 1022496
13:00+14всв657214 0.0 1020498
16:00+13всв458252 0.1 1018372
19:00+11св459165 0.1 1017267
22:00+11ссв468799 0.1 1017181
8 марта, пн
пн801:00+11ссв568599 0.3 1016193
04:00+11ссв3476100 0.0 1013132
07:00+11всв468393 0.1 1013380
10:00+13св457396 0.0 1013484
13:00+14всв567098 0.0 1012589
16:00+14св5679100 0.3 1011470
19:00+11с3387100 1.5 1012201
22:00+11ссв6991100 0.7 1012423
9 марта, вт
вт901:00+11ссв568599 0.7 1012303
04:00+11ссв3484100 0.0 1011265
07:00+11ссв5686100 0.1 1011290
10:00+11ссв5779100 0.8 1012499
13:00+12ссв3476100 1.2 1013356
16:00+12ссв3380100 0.3 1012432
19:00+11ссв2281100 0.4 1014284
22:00+10с228078 0.2 101590
10 марта, ср
ср1001:00+9зсз228239 0.2 1016111
04:00+9ссз23790 0.0 1016102
07:00+8с22800 0.0 1017117
10:00+12св11660 0.0 1019507
13:00+12вюв21651 0.0 1020508
16:00+12ююв01667 0.0 1020462
19:00+11з22704 0.0 1021147
22:00+9сз23730 0.0 1024101
11 марта, чт
чт1101:00+9зсз45720 0.0 1025193
04:00+9з57790 0.0 1025277
07:00+9зсз57820 0.0 1025333
10:00+13з67600 0.0 1026787
13:00+14зюз89561 0.0 1026795
16:00+14зюз89670 0.0 1025754
19:00+11з68837 0.0 1025504
22:00+11зюз798677 0.1 1025705